Time,TemperatureF,DewpointF,PressureIn,WindDirection,WindDirectionDegrees,WindSpeedMPH,WindSpeedGustMPH,Humidity,HourlyPrecipIn,Conditions,Clouds,dailyrainin,SoftwareType,DateUTC
2013-11-02 00:02:00,58.2,55.3,30.12,WNW,290,0.0,0.0,90,0.00,,,0.00,Wunderground v.1.15,2013-11-01 13:02:00,
2013-11-02 00:07:00,57.9,55.0,30.12,WNW,290,0.0,0.0,90,0.00,,,0.00,Wunderground v.1.15,2013-11-01 13:07:00,
2013-11-02 00:13:00,57.6,54.7,30.11,WNW,290,0.0,0.0,90,0.00,,,0.00,Wunderground v.1.15,2013-11-01 13:13:00,
2013-11-02 00:18:00,57.6,55.0,30.11,WNW,290,0.0,0.0,91,0.00,,,0.00,Wunderground v.1.15,2013-11-01 13:18:00,
2013-11-02 00:23:00,57.4,54.8,30.11,WNW,290,0.0,0.0,91,0.00,,,0.00,Wunderground v.1.15,2013-11-01 13:23:00,
2013-11-02 00:29:00,57.4,54.8,30.11,WNW,290,0.0,0.0,91,0.00,,,0.00,Wunderground v.1.15,2013-11-01 13:29:00,
2013-11-02 00:34:00,57.3,54.7,30.11,WNW,290,0.0,0.0,91,0.00,,,0.00,Wunderground v.1.15,2013-11-01 13:34:00,
2013-11-02 00:40:00,57.4,54.8,30.11,North,-999,0.0,0.0,91,0.00,,,-99.99,WeatherLink 5.9.3,2013-11-01 13:40:00,
2013-11-02 00:46:00,56.8,54.2,30.10,WNW,290,0.0,0.0,91,0.00,,,0.00,Wunderground v.1.15,2013-11-01 13:46:00,
2013-11-02 00:51:00,56.8,54.5,30.10,WNW,290,0.0,0.0,92,0.00,,,0.00,Wunderground v.1.15,2013-11-01 13:51:00,
2013-11-02 00:57:00,56.7,54.4,30.10,WNW,290,0.0,0.0,92,0.00,,,0.00,Wunderground v.1.15,2013-11-01 13:57:00,
2013-11-02 01:02:00,56.6,54.3,30.10,WNW,290,0.0,0.0,92,0.00,,,0.00,Wunderground v.1.15,2013-11-01 14:02:00,
2013-11-02 01:07:00,56.4,54.1,30.10,WNW,290,0.0,0.0,92,0.00,,,0.00,Wunderground v.1.15,2013-11-01 14:07:00,
2013-11-02 01:13:00,56.3,54.0,30.10,WNW,290,0.0,0.0,92,0.00,,,0.00,Wunderground v.1.15,2013-11-01 14:13:00,
2013-11-02 01:18:00,56.1,53.8,30.10,WNW,290,0.0,0.0,92,0.00,,,0.00,Wunderground v.1.15,2013-11-01 14:18:00,
2013-11-02 01:23:00,56.0,54.0,30.09,WNW,290,0.0,0.0,93,0.00,,,0.00,Wunderground v.1.15,2013-11-01 14:23:00,
2013-11-02 01:29:00,55.9,53.6,30.09,WNW,290,0.0,0.0,92,0.00,,,0.00,Wunderground v.1.15,2013-11-01 14:29:00,
2013-11-02 01:34:00,55.8,53.8,30.09,WNW,290,0.0,0.0,93,0.00,,,0.00,Wunderground v.1.15,2013-11-01 14:34:00,
2013-11-02 01:39:00,55.7,53.7,30.09,WNW,290,0.0,0.0,93,0.00,,,0.00,Wunderground v.1.15,2013-11-01 14:39:00,
2013-11-02 01:45:00,55.4,53.4,30.08,WNW,290,0.0,0.0,93,0.00,,,0.00,Wunderground v.1.15,2013-11-01 14:45:00,
2013-11-02 01:50:00,55.5,53.5,30.09,North,-999,0.0,0.0,93,0.00,,,-99.99,WeatherLink 5.9.3,2013-11-01 14:50:00,
2013-11-02 01:56:00,54.9,52.9,30.08,WNW,290,0.0,0.0,93,0.00,,,0.00,Wunderground v.1.15,2013-11-01 14:56:00,
2013-11-02 02:01:00,54.5,52.5,30.07,WNW,290,0.0,0.0,93,0.00,,,0.00,Wunderground v.1.15,2013-11-01 15:01:00,
2013-11-02 02:06:00,54.3,52.3,30.07,WNW,290,0.0,0.0,93,0.00,,,0.00,Wunderground v.1.15,2013-11-01 15:06:00,
2013-11-02 02:11:00,54.2,52.2,30.07,WNW,290,0.0,0.0,93,0.00,,,0.00,Wunderground v.1.15,2013-11-01 15:11:00,
2013-11-02 02:17:00,54.5,52.8,30.07,WNW,290,0.0,0.0,94,0.00,,,0.00,Wunderground v.1.15,2013-11-01 15:17:00,
2013-11-02 02:22:00,54.6,52.9,30.07,WNW,290,0.0,0.0,94,0.00,,,0.00,Wunderground v.1.15,2013-11-01 15:22:00,
2013-11-02 02:27:00,54.5,52.8,30.06,WNW,290,0.0,0.0,94,0.00,,,0.00,Wunderground v.1.15,2013-11-01 15:27:00,
2013-11-02 02:33:00,54.3,52.6,30.06,WNW,290,0.0,0.0,94,0.00,,,0.00,Wunderground v.1.15,2013-11-01 15:33:00,
2013-11-02 02:38:00,54.2,52.5,30.06,WNW,290,0.0,0.0,94,0.00,,,0.00,Wunderground v.1.15,2013-11-01 15:38:00,
2013-11-02 02:43:00,54.3,52.6,30.06,WNW,290,0.0,0.0,94,0.00,,,0.00,Wunderground v.1.15,2013-11-01 15:43:00,
2013-11-02 02:49:00,54.1,52.4,30.06,WNW,290,0.0,0.0,94,0.00,,,0.00,Wunderground v.1.15,2013-11-01 15:49:00,
2013-11-02 02:54:00,53.9,52.2,30.06,WNW,290,0.0,0.0,94,0.00,,,0.00,Wunderground v.1.15,2013-11-01 15:54:00,
2013-11-02 02:59:00,53.7,52.0,30.05,WNW,290,0.0,0.0,94,0.00,,,0.00,Wunderground v.1.15,2013-11-01 15:59:00,
2013-11-02 03:05:00,53.3,51.6,30.05,WNW,290,0.0,0.0,94,0.00,,,0.00,Wunderground v.1.15,2013-11-01 16:05:00,
2013-11-02 03:10:00,53.5,51.8,30.05,North,-999,0.0,0.0,94,0.00,,,-99.99,WeatherLink 5.9.3,2013-11-01 16:10:00,
2013-11-02 03:16:00,53.2,51.5,30.06,WNW,290,0.0,0.0,94,0.00,,,0.00,Wunderground v.1.15,2013-11-01 16:16:00,
2013-11-02 03:21:00,53.1,51.4,30.06,WNW,290,0.0,0.0,94,0.00,,,0.00,Wunderground v.1.15,2013-11-01 16:21:00,
2013-11-02 03:26:00,53.0,51.6,30.05,WNW,290,0.0,0.0,95,0.00,,,0.00,Wunderground v.1.15,2013-11-01 16:26:00,
2013-11-02 03:31:00,53.0,51.6,30.06,WNW,290,0.0,0.0,95,0.00,,,0.00,Wunderground v.1.15,2013-11-01 16:31:00,
2013-11-02 03:37:00,52.9,51.5,30.06,WNW,290,0.0,0.0,95,0.00,,,0.00,Wunderground v.1.15,2013-11-01 16:37:00,
2013-11-02 03:42:00,52.6,50.9,30.05,WNW,290,0.0,0.0,94,0.00,,,0.00,Wunderground v.1.15,2013-11-01 16:42:00,
2013-11-02 03:47:00,52.4,51.0,30.05,WNW,290,0.0,0.0,95,0.00,,,0.00,Wunderground v.1.15,2013-11-01 16:47:00,
2013-11-02 03:52:00,52.8,51.4,30.05,WNW,290,0.0,0.0,95,0.00,,,0.00,Wunderground v.1.15,2013-11-01 16:52:00,
2013-11-02 03:58:00,52.7,51.3,30.05,WNW,290,0.0,0.0,95,0.00,,,0.00,Wunderground v.1.15,2013-11-01 16:58:00,
2013-11-02 04:03:00,52.6,51.2,30.05,WNW,290,0.0,0.0,95,0.00,,,0.00,Wunderground v.1.15,2013-11-01 17:03:00,
2013-11-02 04:08:00,52.8,51.4,30.05,WNW,290,0.0,0.0,95,0.00,,,0.00,Wunderground v.1.15,2013-11-01 17:08:00,
2013-11-02 04:14:00,52.9,51.5,30.05,WNW,290,0.0,0.0,95,0.00,,,0.00,Wunderground v.1.15,2013-11-01 17:14:00,
2013-11-02 04:19:00,52.7,51.3,30.04,WNW,290,0.0,0.0,95,0.00,,,0.00,Wunderground v.1.15,2013-11-01 17:19:00,
2013-11-02 04:24:00,52.5,51.1,30.04,WNW,290,0.0,0.0,95,0.00,,,0.00,Wunderground v.1.15,2013-11-01 17:24:00,
2013-11-02 04:30:00,52.6,51.2,30.04,North,-999,0.0,0.0,95,0.00,,,-99.99,WeatherLink 5.9.3,2013-11-01 17:30:00,
2013-11-02 04:36:00,52.7,51.6,30.04,WNW,290,0.0,0.0,96,0.00,,,0.00,Wunderground v.1.15,2013-11-01 17:36:00,
2013-11-02 04:42:00,52.5,51.1,30.05,WNW,290,0.0,0.0,95,0.00,,,0.00,Wunderground v.1.15,2013-11-01 17:42:00,
2013-11-02 04:47:00,52.3,50.9,30.05,WNW,290,0.0,0.0,95,0.00,,,0.00,Wunderground v.1.15,2013-11-01 17:47:00,
2013-11-02 04:52:00,52.2,50.8,30.05,WNW,290,0.0,0.0,95,0.00,,,0.00,Wunderground v.1.15,2013-11-01 17:52:00,
2013-11-02 04:58:00,52.1,50.7,30.05,WNW,290,0.0,0.0,95,0.00,,,0.00,Wunderground v.1.15,2013-11-01 17:58:00,
2013-11-02 05:03:00,51.9,50.5,30.05,WNW,290,0.0,0.0,95,0.00,,,0.00,Wunderground v.1.15,2013-11-01 18:03:00,
2013-11-02 05:08:00,51.6,50.2,30.05,WNW,290,0.0,0.0,95,0.00,,,0.00,Wunderground v.1.15,2013-11-01 18:08:00,
2013-11-02 05:14:00,51.3,49.9,30.05,WNW,290,0.0,0.0,95,0.00,,,0.00,Wunderground v.1.15,2013-11-01 18:14:00,
2013-11-02 05:19:00,51.4,50.3,30.05,WNW,290,0.0,0.0,96,0.00,,,0.00,Wunderground v.1.15,2013-11-01 18:19:00,
2013-11-02 05:25:00,51.3,49.9,30.06,WNW,290,0.0,0.0,95,0.00,,,0.00,Wunderground v.1.15,2013-11-01 18:25:00,
2013-11-02 05:30:00,51.3,49.9,30.06,North,-999,0.0,0.0,95,0.00,,,-99.99,WeatherLink 5.9.3,2013-11-01 18:30:00,
2013-11-02 05:36:00,50.8,49.4,30.06,WNW,290,0.0,0.0,95,0.00,,,0.00,Wunderground v.1.15,2013-11-01 18:36:00,
2013-11-02 05:42:00,50.7,49.6,30.06,WNW,290,0.0,0.0,96,0.00,,,0.00,Wunderground v.1.15,2013-11-01 18:42:00,
2013-11-02 05:47:00,50.6,49.5,30.06,WNW,290,0.0,0.0,96,0.00,,,0.00,Wunderground v.1.15,2013-11-01 18:47:00,
2013-11-02 05:53:00,50.6,49.5,30.06,WNW,290,0.0,0.0,96,0.00,,,0.00,Wunderground v.1.15,2013-11-01 18:53:00,
2013-11-02 05:58:00,50.6,49.5,30.06,WNW,290,0.0,0.0,96,0.00,,,0.00,Wunderground v.1.15,2013-11-01 18:58:00,
2013-11-02 06:03:00,50.6,49.5,30.06,WNW,290,0.0,0.0,96,0.00,,,0.00,Wunderground v.1.15,2013-11-01 19:03:00,
2013-11-02 06:08:00,50.6,49.5,30.06,WNW,290,0.0,0.0,96,0.00,,,0.00,Wunderground v.1.15,2013-11-01 19:08:00,
2013-11-02 06:14:00,50.9,49.8,30.07,WNW,290,0.0,0.0,96,0.00,,,0.00,Wunderground v.1.15,2013-11-01 19:14:00,
2013-11-02 06:19:00,51.1,50.0,30.07,WNW,290,0.0,0.0,96,0.00,,,0.00,Wunderground v.1.15,2013-11-01 19:19:00,
2013-11-02 06:24:00,51.2,50.1,30.07,WNW,290,0.0,0.0,96,0.00,,,0.00,Wunderground v.1.15,2013-11-01 19:24:00,
2013-11-02 06:30:00,51.1,50.0,30.07,North,-999,0.0,0.0,96,0.00,,,-99.99,WeatherLink 5.9.3,2013-11-01 19:30:00,
2013-11-02 06:36:00,51.6,50.5,30.07,WNW,290,0.0,0.0,96,0.00,,,0.00,Wunderground v.1.15,2013-11-01 19:36:00,
2013-11-02 06:42:00,52.5,51.7,30.07,WNW,290,0.0,0.0,97,0.00,,,0.00,Wunderground v.1.15,2013-11-01 19:42:00,
2013-11-02 06:47:00,53.4,52.6,30.07,WNW,290,0.0,0.0,97,0.00,,,0.00,Wunderground v.1.15,2013-11-01 19:47:00,
2013-11-02 06:53:00,54.2,53.4,30.07,WNW,290,0.0,0.0,97,0.00,,,0.00,Wunderground v.1.15,2013-11-01 19:53:00,
2013-11-02 06:58:00,55.1,54.3,30.07,WNW,290,0.0,0.0,97,0.00,,,0.00,Wunderground v.1.15,2013-11-01 19:58:00,
2013-11-02 07:03:00,55.5,54.7,30.07,WNW,290,0.0,0.0,97,0.00,,,0.00,Wunderground v.1.15,2013-11-01 20:03:00,
2013-11-02 07:09:00,56.2,55.4,30.07,WNW,290,0.0,0.0,97,0.00,,,0.00,Wunderground v.1.15,2013-11-01 20:09:00,
2013-11-02 07:14:00,57.7,56.9,30.07,WNW,290,0.0,0.0,97,0.00,,,0.00,Wunderground v.1.15,2013-11-01 20:14:00,
2013-11-02 07:19:00,57.8,56.7,30.07,NW,326,0.0,0.0,96,0.00,,,0.00,Wunderground v.1.15,2013-11-01 20:19:00,
2013-11-02 07:25:00,58.3,56.3,30.07,NNE,14,0.0,0.0,93,0.00,,,0.00,Wunderground v.1.15,2013-11-01 20:25:00,
2013-11-02 07:30:00,57.9,56.5,30.07,North,-999,0.0,0.0,95,0.00,,,-99.99,WeatherLink 5.9.3,2013-11-01 20:30:00,
2013-11-02 07:36:00,59.5,56.9,30.07,North,11,0.0,0.0,91,0.00,,,0.00,Wunderground v.1.15,2013-11-01 20:36:00,
2013-11-02 07:41:00,60.4,57.8,30.08,North,11,0.0,0.0,91,0.00,,,0.00,Wunderground v.1.15,2013-11-01 20:41:00,
2013-11-02 07:46:00,61.0,57.4,30.08,NW,322,0.0,0.0,88,0.00,,,0.00,Wunderground v.1.15,2013-11-01 20:46:00,
2013-11-02 07:52:00,61.7,57.5,30.08,NW,322,0.0,0.0,86,0.00,,,0.00,Wunderground v.1.15,2013-11-01 20:52:00,
2013-11-02 07:57:00,62.5,57.6,30.08,NNE,16,0.0,1.0,84,0.00,,,0.00,Wunderground v.1.15,2013-11-01 20:57:00,
2013-11-02 08:02:00,63.7,59.1,30.08,NNE,15,0.0,0.0,85,0.00,,,0.00,Wunderground v.1.15,2013-11-01 21:02:00,
2013-11-02 08:07:00,65.1,59.5,30.08,NW,314,0.0,1.0,82,0.00,,,0.00,Wunderground v.1.15,2013-11-01 21:07:00,
2013-11-02 08:13:00,65.4,59.1,30.08,West,271,1.0,2.0,80,0.00,,,0.00,Wunderground v.1.15,2013-11-01 21:13:00,
2013-11-02 08:18:00,66.2,59.8,30.08,NNE,15,1.0,2.0,80,0.00,,,0.00,Wunderground v.1.15,2013-11-01 21:18:00,
2013-11-02 08:23:00,67.5,60.4,30.09,WNW,285,1.0,1.0,78,0.00,,,0.00,Wunderground v.1.15,2013-11-01 21:23:00,
2013-11-02 08:29:00,67.9,59.7,30.09,NW,325,1.0,2.0,75,0.00,,,0.00,Wunderground v.1.15,2013-11-01 21:29:00,
2013-11-02 08:34:00,67.7,59.9,30.09,NNE,17,1.0,1.0,76,0.00,,,0.00,Wunderground v.1.15,2013-11-01 21:34:00,
2013-11-02 08:40:00,67.9,59.7,30.09,NNE,22,1.0,2.0,75,0.00,,,-99.99,WeatherLink 5.9.3,2013-11-01 21:40:00,
2013-11-02 08:46:00,69.9,61.6,30.09,NNE,20,0.0,1.0,75,0.00,,,0.00,Wunderground v.1.15,2013-11-01 21:46:00,
2013-11-02 08:52:00,71.1,61.6,30.09,NW,316,1.0,3.0,72,0.00,,,0.00,Wunderground v.1.15,2013-11-01 21:52:00,
2013-11-02 08:57:00,72.6,61.8,30.09,NNE,27,1.0,3.0,69,0.00,,,0.00,Wunderground v.1.15,2013-11-01 21:57:00,
2013-11-02 09:02:00,73.9,62.2,30.08,NW,321,1.0,1.0,67,0.00,,,0.00,Wunderground v.1.15,2013-11-01 22:02:00,
2013-11-02 09:08:00,74.3,60.4,30.09,NNE,24,1.0,4.0,62,0.00,,,0.00,Wunderground v.1.15,2013-11-01 22:08:00,
2013-11-02 09:13:00,74.5,60.6,30.09,West,270,2.0,2.0,62,0.00,,,0.00,Wunderground v.1.15,2013-11-01 22:13:00,
2013-11-02 09:18:00,75.4,60.5,30.08,NNE,32,1.0,2.0,60,0.00,,,0.00,Wunderground v.1.15,2013-11-01 22:18:00,
2013-11-02 09:24:00,75.8,60.4,30.08,NW,316,1.0,2.0,59,0.00,,,0.00,Wunderground v.1.15,2013-11-01 22:24:00,
2013-11-02 09:29:00,76.4,60.0,30.08,WNW,295,1.0,3.0,57,0.00,,,0.00,Wunderground v.1.15,2013-11-01 22:29:00,
2013-11-02 09:35:00,76.9,60.0,30.08,North,354,1.0,2.0,56,0.00,,,0.00,Wunderground v.1.15,2013-11-01 22:35:00,
2013-11-02 09:40:00,76.7,59.8,30.08,NW,315,2.0,5.0,56,0.00,,,-99.99,WeatherLink 5.9.3,2013-11-01 22:40:00,
2013-11-02 09:46:00,77.9,60.4,30.08,NNW,336,2.0,4.0,55,0.00,,,0.00,Wunderground v.1.15,2013-11-01 22:46:00,
2013-11-02 09:51:00,78.3,60.3,30.07,West,274,2.0,2.0,54,0.00,,,0.00,Wunderground v.1.15,2013-11-01 22:51:00,
2013-11-02 09:56:00,79.6,59.9,30.07,NW,318,2.0,2.0,51,0.00,,,0.00,Wunderground v.1.15,2013-11-01 22:56:00,
2013-11-02 10:01:00,80.4,59.5,30.07,NNE,12,2.0,3.0,49,0.00,,,0.00,Wunderground v.1.15,2013-11-01 23:01:00,
2013-11-02 10:07:00,80.2,59.3,30.07,NE,34,2.0,6.0,49,0.00,,,0.00,Wunderground v.1.15,2013-11-01 23:07:00,
2013-11-02 10:12:00,81.2,59.1,30.06,NNE,24,2.0,3.0,47,0.00,,,0.00,Wunderground v.1.15,2013-11-01 23:12:00,
2013-11-02 10:17:00,81.7,60.1,30.06,WNW,285,2.0,8.0,48,0.00,,,0.00,Wunderground v.1.15,2013-11-01 23:17:00,
2013-11-02 10:23:00,82.7,57.9,30.06,West,277,2.0,6.0,43,0.00,,,0.00,Wunderground v.1.15,2013-11-01 23:23:00,
2013-11-02 10:28:00,82.8,58.0,30.06,SSE,164,3.0,6.0,43,0.00,,,0.00,Wunderground v.1.15,2013-11-01 23:28:00,
2013-11-02 10:33:00,83.1,58.9,30.06,NNW,338,3.0,3.0,44,0.00,,,0.00,Wunderground v.1.15,2013-11-01 23:33:00,
2013-11-02 10:39:00,83.8,57.6,30.05,NW,309,2.0,3.0,41,0.00,,,0.00,Wunderground v.1.15,2013-11-01 23:39:00,
2013-11-02 10:44:00,84.0,57.8,30.05,WNW,294,2.0,8.0,41,0.00,,,0.00,Wunderground v.1.15,2013-11-01 23:44:00,
2013-11-02 10:49:00,83.9,56.3,30.05,NE,47,3.0,8.0,39,0.00,,,0.00,Wunderground v.1.15,2013-11-01 23:49:00,
2013-11-02 10:55:00,84.3,57.3,30.04,WNW,298,3.0,4.0,40,0.00,,,0.00,Wunderground v.1.15,2013-11-01 23:55:00,
2013-11-02 11:00:00,83.9,57.0,30.05,NW,315,3.0,6.0,40,0.00,,,-99.99,WeatherLink 5.9.3,2013-11-02 00:00:00,
2013-11-02 11:06:00,85.3,56.8,30.04,SSE,157,2.0,4.0,38,0.00,,,0.00,Wunderground v.1.15,2013-11-02 00:06:00,
2013-11-02 11:11:00,85.3,56.8,30.04,WSW,241,2.0,4.0,38,0.00,,,0.00,Wunderground v.1.15,2013-11-02 00:11:00,
2013-11-02 11:16:00,85.1,57.4,30.03,NNE,23,2.0,5.0,39,0.00,,,0.00,Wunderground v.1.15,2013-11-02 00:16:00,
2013-11-02 11:22:00,85.6,56.3,30.03,WSW,238,3.0,5.0,37,0.00,,,0.00,Wunderground v.1.15,2013-11-02 00:22:00,
2013-11-02 11:27:00,85.9,56.6,30.03,NNE,24,2.0,8.0,37,0.00,,,0.00,Wunderground v.1.15,2013-11-02 00:27:00,
2013-11-02 11:32:00,86.3,57.7,30.02,ENE,68,2.0,3.0,38,0.00,,,0.00,Wunderground v.1.15,2013-11-02 00:32:00,
2013-11-02 11:38:00,86.6,56.5,30.02,NNE,23,2.0,6.0,36,0.00,,,0.00,Wunderground v.1.15,2013-11-02 00:38:00,
2013-11-02 11:43:00,86.6,57.2,30.02,NW,311,2.0,4.0,37,0.00,,,0.00,Wunderground v.1.15,2013-11-02 00:43:00,
2013-11-02 11:48:00,86.8,56.6,30.01,NNW,328,2.0,4.0,36,0.00,,,0.00,Wunderground v.1.15,2013-11-02 00:48:00,
2013-11-02 11:54:00,87.5,55.7,30.01,SSW,203,2.0,4.0,34,0.00,,,0.00,Wunderground v.1.15,2013-11-02 00:54:00,
2013-11-02 11:59:00,87.2,55.4,30.00,NW,305,2.0,4.0,34,0.00,,,0.00,Wunderground v.1.15,2013-11-02 00:59:00,
2013-11-02 12:04:00,87.2,54.6,30.00,NNE,15,2.0,4.0,33,0.00,,,0.00,Wunderground v.1.15,2013-11-02 01:04:00,
2013-11-02 12:10:00,87.2,54.6,30.00,NNW,337,2.0,6.0,33,0.00,,,-99.99,WeatherLink 5.9.3,2013-11-02 01:10:00,
2013-11-02 12:16:00,88.0,55.3,29.99,NW,323,3.0,5.0,33,0.00,,,0.00,Wunderground v.1.15,2013-11-02 01:16:00,
2013-11-02 12:22:00,88.6,54.1,29.98,North,360,3.0,3.0,31,0.00,,,0.00,Wunderground v.1.15,2013-11-02 01:22:00,
2013-11-02 12:27:00,88.4,51.1,29.98,NW,325,3.0,4.0,28,0.00,,,0.00,Wunderground v.1.15,2013-11-02 01:27:00,
2013-11-02 12:32:00,88.1,51.8,29.98,WSW,243,2.0,5.0,29,0.00,,,0.00,Wunderground v.1.15,2013-11-02 01:32:00,
2013-11-02 12:38:00,88.9,53.5,29.97,NNE,15,3.0,5.0,30,0.00,,,0.00,Wunderground v.1.15,2013-11-02 01:38:00,
2013-11-02 12:43:00,89.7,51.3,29.97,West,279,2.0,4.0,27,0.00,,,0.00,Wunderground v.1.15,2013-11-02 01:43:00,
2013-11-02 12:48:00,90.5,53.9,29.96,WSW,251,3.0,4.0,29,0.00,,,0.00,Wunderground v.1.15,2013-11-02 01:48:00,
2013-11-02 12:54:00,90.9,52.3,29.96,NNW,338,2.0,3.0,27,0.00,,,0.00,Wunderground v.1.15,2013-11-02 01:54:00,
2013-11-02 12:59:00,90.8,52.2,29.96,NW,312,3.0,4.0,27,0.00,,,0.00,Wunderground v.1.15,2013-11-02 01:59:00,
2013-11-02 13:04:00,91.0,52.4,29.95,NNW,336,3.0,4.0,27,0.00,,,0.00,Wunderground v.1.15,2013-11-02 02:04:00,
2013-11-02 13:10:00,90.8,53.2,29.96,West,270,3.0,9.0,28,0.00,,,-99.99,WeatherLink 5.9.3,2013-11-02 02:10:00,
2013-11-02 13:16:00,91.9,52.1,29.94,SSW,195,2.0,4.0,26,0.00,,,0.00,Wunderground v.1.15,2013-11-02 02:16:00,
2013-11-02 13:22:00,91.8,52.0,29.94,WNW,297,3.0,3.0,26,0.00,,,0.00,Wunderground v.1.15,2013-11-02 02:22:00,
2013-11-02 13:27:00,91.6,50.8,29.93,South,173,3.0,3.0,25,0.00,,,0.00,Wunderground v.1.15,2013-11-02 02:27:00,
2013-11-02 13:32:00,91.5,49.6,29.93,SSW,195,2.0,4.0,24,0.00,,,0.00,Wunderground v.1.15,2013-11-02 02:32:00,
2013-11-02 13:38:00,91.7,49.8,29.92,WNW,288,1.0,4.0,24,0.00,,,0.00,Wunderground v.1.15,2013-11-02 02:38:00,
2013-11-02 13:43:00,92.6,48.2,29.92,WNW,288,1.0,4.0,22,0.00,,,0.00,Wunderground v.1.15,2013-11-02 02:43:00,
2013-11-02 13:48:00,93.3,48.8,29.92,West,265,3.0,5.0,22,0.00,,,0.00,Wunderground v.1.15,2013-11-02 02:48:00,
2013-11-02 13:54:00,92.6,48.2,29.92,WNW,300,3.0,8.0,22,0.00,,,0.00,Wunderground v.1.15,2013-11-02 02:54:00,
2013-11-02 13:59:00,92.4,48.0,29.91,West,261,3.0,8.0,22,0.00,,,0.00,Wunderground v.1.15,2013-11-02 02:59:00,
2013-11-02 14:05:00,92.8,48.4,29.91,SSE,159,3.0,3.0,22,0.00,,,0.00,Wunderground v.1.15,2013-11-02 03:05:00,
2013-11-02 14:10:00,92.7,49.5,29.92,West,270,2.0,12.0,23,0.00,,,-99.99,WeatherLink 5.9.3,2013-11-02 03:10:00,
2013-11-02 14:16:00,92.3,48.0,29.90,NW,309,3.0,3.0,22,0.00,,,0.00,Wunderground v.1.15,2013-11-02 03:16:00,
2013-11-02 14:22:00,92.2,47.9,29.90,WSW,255,2.0,4.0,22,0.00,,,0.00,Wunderground v.1.15,2013-11-02 03:22:00,
2013-11-02 14:27:00,93.5,47.7,29.89,North,352,3.0,4.0,21,0.00,,,0.00,Wunderground v.1.15,2013-11-02 03:27:00,
2013-11-02 14:33:00,94.0,48.1,29.89,NNW,335,4.0,8.0,21,0.00,,,0.00,Wunderground v.1.15,2013-11-02 03:33:00,
2013-11-02 14:38:00,94.3,47.1,29.89,WNW,293,3.0,8.0,20,0.00,,,0.00,Wunderground v.1.15,2013-11-02 03:38:00,
2013-11-02 14:43:00,94.5,47.2,29.88,West,280,3.0,4.0,20,0.00,,,0.00,Wunderground v.1.15,2013-11-02 03:43:00,
2013-11-02 14:49:00,94.3,47.1,29.88,WNW,287,3.0,9.0,20,0.00,,,0.00,Wunderground v.1.15,2013-11-02 03:49:00,
2013-11-02 14:54:00,93.1,46.1,29.88,WNW,293,4.0,7.0,20,0.00,,,0.00,Wunderground v.1.15,2013-11-02 03:54:00,
2013-11-02 14:59:00,92.5,45.6,29.88,SSE,153,4.0,7.0,20,0.00,,,0.00,Wunderground v.1.15,2013-11-02 03:59:00,
2013-11-02 15:01:00,92.6,47.0,29.88,SSW,213,3.0,3.0,21,0.00,,,0.00,Wunderground v.1.15,2013-11-02 04:01:00,
2013-11-02 15:02:00,92.8,47.1,29.88,East,83,2.0,3.0,21,0.00,,,0.00,Wunderground v.1.15,2013-11-02 04:02:00,
2013-11-02 15:03:00,93.0,47.3,29.87,West,264,2.0,3.0,21,0.00,,,0.00,Wunderground v.1.15,2013-11-02 04:03:00,
2013-11-02 15:04:00,93.2,48.7,29.87,West,281,2.0,4.0,22,0.00,,,0.00,Wunderground v.1.15,2013-11-02 04:04:00,
2013-11-02 15:09:00,93.6,45.1,29.87,NW,311,2.0,5.0,19,0.00,,,0.00,Wunderground v.1.15,2013-11-02 04:09:00,
2013-11-02 15:10:00,93.5,48.9,29.87,West,270,2.0,8.0,22,0.00,,,-99.99,WeatherLink 5.9.3,2013-11-02 04:10:00,
2013-11-02 15:16:00,93.6,46.5,29.87,WNW,294,2.0,5.0,20,0.00,,,0.00,Wunderground v.1.15,2013-11-02 04:16:00,
2013-11-02 15:21:00,93.8,45.3,29.86,NW,304,2.0,3.0,19,0.00,,,0.00,Wunderground v.1.15,2013-11-02 04:21:00,
2013-11-02 15:26:00,93.7,46.6,29.86,West,279,2.0,4.0,20,0.00,,,0.00,Wunderground v.1.15,2013-11-02 04:26:00,
2013-11-02 15:32:00,93.7,45.2,29.86,WSW,258,3.0,3.0,19,0.00,,,0.00,Wunderground v.1.15,2013-11-02 04:32:00,
2013-11-02 15:37:00,94.0,45.5,29.86,SW,219,3.0,7.0,19,0.00,,,0.00,Wunderground v.1.15,2013-11-02 04:37:00,
2013-11-02 15:43:00,93.6,45.1,29.85,WNW,302,3.0,4.0,19,0.00,,,0.00,Wunderground v.1.15,2013-11-02 04:43:00,
2013-11-02 15:48:00,94.7,47.4,29.85,South,185,3.0,4.0,20,0.00,,,0.00,Wunderground v.1.15,2013-11-02 04:48:00,
2013-11-02 15:53:00,95.9,42.5,29.85,WNW,290,3.0,7.0,16,0.00,,,0.00,Wunderground v.1.15,2013-11-02 04:53:00,
2013-11-02 15:58:00,94.8,41.6,29.85,WNW,293,3.0,9.0,16,0.00,,,0.00,Wunderground v.1.15,2013-11-02 04:58:00,
2013-11-02 16:04:00,93.2,40.3,29.85,SSW,198,4.0,11.0,16,0.00,,,0.00,Wunderground v.1.15,2013-11-02 05:04:00,
2013-11-02 16:09:00,94.1,44.1,29.85,WNW,285,3.0,11.0,18,0.00,,,0.00,Wunderground v.1.15,2013-11-02 05:09:00,
2013-11-02 16:15:00,94.2,39.5,29.85,SSW,205,3.0,9.0,15,0.00,,,0.00,Wunderground v.1.15,2013-11-02 05:15:00,
2013-11-02 16:20:00,94.5,41.4,29.85,West,270,3.0,12.0,16,0.00,,,-99.99,WeatherLink 5.9.3,2013-11-02 05:20:00,
2013-11-02 16:26:00,95.4,40.4,29.85,WNW,302,3.0,4.0,15,0.00,,,0.00,Wunderground v.1.15,2013-11-02 05:26:00,
2013-11-02 16:31:00,95.5,38.7,29.85,NNW,330,3.0,3.0,14,0.00,,,0.00,Wunderground v.1.15,2013-11-02 05:31:00,
2013-11-02 16:36:00,95.2,40.3,29.85,NW,315,3.0,4.0,15,0.00,,,0.00,Wunderground v.1.15,2013-11-02 05:36:00,
2013-11-02 16:42:00,95.4,36.8,29.85,WNW,283,3.0,6.0,13,0.00,,,0.00,Wunderground v.1.15,2013-11-02 05:42:00,
2013-11-02 16:47:00,95.2,38.5,29.84,South,172,3.0,6.0,14,0.00,,,0.00,Wunderground v.1.15,2013-11-02 05:47:00,
2013-11-02 16:52:00,94.8,36.3,29.84,West,269,4.0,4.0,13,0.00,,,0.00,Wunderground v.1.15,2013-11-02 05:52:00,
2013-11-02 16:58:00,93.7,37.3,29.84,East,90,5.0,7.0,14,0.00,,,0.00,Wunderground v.1.15,2013-11-02 05:58:00,
2013-11-02 17:03:00,94.6,38.0,29.84,SE,131,3.0,4.0,14,0.00,,,0.00,Wunderground v.1.15,2013-11-02 06:03:00,
2013-11-02 17:08:00,95.2,36.6,29.84,WSW,256,2.0,7.0,13,0.00,,,0.00,Wunderground v.1.15,2013-11-02 06:08:00,
2013-11-02 17:14:00,94.4,36.0,29.84,WNW,296,3.0,4.0,13,0.00,,,0.00,Wunderground v.1.15,2013-11-02 06:14:00,
2013-11-02 17:19:00,93.8,35.5,29.84,WSW,253,3.0,6.0,13,0.00,,,0.00,Wunderground v.1.15,2013-11-02 06:19:00,
2013-11-02 17:24:00,93.2,38.7,29.84,NW,323,3.0,5.0,15,0.00,,,0.00,Wunderground v.1.15,2013-11-02 06:24:00,
2013-11-02 17:30:00,93.3,37.0,29.84,West,270,4.0,8.0,14,0.00,,,-99.99,WeatherLink 5.9.3,2013-11-02 06:30:00,
2013-11-02 17:36:00,92.5,36.4,29.85,West,271,2.0,5.0,14,0.00,,,0.00,Wunderground v.1.15,2013-11-02 06:36:00,
2013-11-02 17:41:00,91.6,35.7,29.84,WNW,283,3.0,3.0,14,0.00,,,0.00,Wunderground v.1.15,2013-11-02 06:41:00,
2013-11-02 17:46:00,92.0,36.0,29.85,WSW,253,2.0,5.0,14,0.00,,,0.00,Wunderground v.1.15,2013-11-02 06:46:00,
2013-11-02 17:51:00,92.1,34.2,29.85,NW,314,3.0,6.0,13,0.00,,,0.00,Wunderground v.1.15,2013-11-02 06:51:00,
2013-11-02 17:56:00,92.1,36.0,29.85,WNW,285,4.0,6.0,14,0.00,,,0.00,Wunderground v.1.15,2013-11-02 06:56:00,
2013-11-02 18:02:00,92.0,34.1,29.85,WSW,257,3.0,4.0,13,0.00,,,0.00,Wunderground v.1.15,2013-11-02 07:02:00,
2013-11-02 18:07:00,91.6,35.7,29.85,West,271,3.0,4.0,14,0.00,,,0.00,Wunderground v.1.15,2013-11-02 07:07:00,
2013-11-02 18:13:00,91.5,35.6,29.85,WNW,295,2.0,3.0,14,0.00,,,0.00,Wunderground v.1.15,2013-11-02 07:13:00,
2013-11-02 18:18:00,90.6,34.9,29.85,WNW,303,2.0,5.0,14,0.00,,,0.00,Wunderground v.1.15,2013-11-02 07:18:00,
2013-11-02 18:23:00,89.8,36.0,29.85,West,270,2.0,2.0,15,0.00,,,0.00,Wunderground v.1.15,2013-11-02 07:23:00,
2013-11-02 18:29:00,89.0,35.3,29.86,WNW,283,1.0,4.0,15,0.00,,,0.00,Wunderground v.1.15,2013-11-02 07:29:00,
2013-11-02 18:34:00,88.4,36.5,29.86,WNW,302,1.0,1.0,16,0.00,,,0.00,Wunderground v.1.15,2013-11-02 07:34:00,
2013-11-02 18:39:00,88.2,34.7,29.86,WNW,290,1.0,2.0,15,0.00,,,0.00,Wunderground v.1.15,2013-11-02 07:39:00,
2013-11-02 18:44:00,88.1,34.6,29.86,West,278,1.0,3.0,15,0.00,,,0.00,Wunderground v.1.15,2013-11-02 07:44:00,
2013-11-02 18:50:00,88.2,34.7,29.86,West,270,2.0,4.0,15,0.00,,,-99.99,WeatherLink 5.9.3,2013-11-02 07:50:00,
2013-11-02 18:56:00,88.1,34.6,29.86,West,272,2.0,4.0,15,0.00,,,0.00,Wunderground v.1.15,2013-11-02 07:56:00,
2013-11-02 19:01:00,87.9,34.5,29.86,WNW,298,2.0,2.0,15,0.00,,,0.00,Wunderground v.1.15,2013-11-02 08:01:00,
2013-11-02 19:06:00,87.4,37.2,29.86,WNW,293,1.0,2.0,17,0.00,,,0.00,Wunderground v.1.15,2013-11-02 08:06:00,
2013-11-02 19:12:00,86.5,36.5,29.86,WNW,285,0.0,3.0,17,0.00,,,0.00,Wunderground v.1.15,2013-11-02 08:12:00,
2013-11-02 19:17:00,86.1,36.2,29.87,NW,314,1.0,3.0,17,0.00,,,0.00,Wunderground v.1.15,2013-11-02 08:17:00,
2013-11-02 19:22:00,85.5,35.7,29.87,WNW,293,1.0,2.0,17,0.00,,,0.00,Wunderground v.1.15,2013-11-02 08:22:00,
2013-11-02 19:28:00,85.1,35.4,29.87,West,275,1.0,2.0,17,0.00,,,0.00,Wunderground v.1.15,2013-11-02 08:28:00,
2013-11-02 19:33:00,84.7,36.5,29.88,West,273,0.0,0.0,18,0.00,,,0.00,Wunderground v.1.15,2013-11-02 08:33:00,
2013-11-02 19:39:00,83.9,37.2,29.88,WSW,241,0.0,0.0,19,0.00,,,0.00,Wunderground v.1.15,2013-11-02 08:39:00,
2013-11-02 19:44:00,83.1,40.3,29.88,WSW,241,0.0,0.0,22,0.00,,,0.00,Wunderground v.1.15,2013-11-02 08:44:00,
2013-11-02 19:49:00,82.1,42.8,29.88,WNW,293,0.0,0.0,25,0.00,,,0.00,Wunderground v.1.15,2013-11-02 08:49:00,
2013-11-02 19:54:00,81.4,45.2,29.89,WNW,293,0.0,0.0,28,0.00,,,0.00,Wunderground v.1.15,2013-11-02 08:54:00,
2013-11-02 20:00:00,81.8,44.5,29.89,WNW,292,0.0,1.0,27,0.00,,,-99.99,WeatherLink 5.9.3,2013-11-02 09:00:00,
2013-11-02 20:06:00,80.2,48.5,29.90,SE,141,0.0,2.0,33,0.00,,,0.00,Wunderground v.1.15,2013-11-02 09:06:00,
2013-11-02 20:11:00,80.4,48.7,29.90,South,176,0.0,1.0,33,0.00,,,0.00,Wunderground v.1.15,2013-11-02 09:11:00,
2013-11-02 20:16:00,80.3,49.4,29.90,WSW,243,1.0,2.0,34,0.00,,,0.00,Wunderground v.1.15,2013-11-02 09:16:00,
2013-11-02 20:21:00,79.9,49.0,29.90,WSW,244,0.0,0.0,34,0.00,,,0.00,Wunderground v.1.15,2013-11-02 09:21:00,
2013-11-02 20:27:00,79.4,48.6,29.90,WSW,243,0.0,0.0,34,0.00,,,0.00,Wunderground v.1.15,2013-11-02 09:27:00,
2013-11-02 20:32:00,79.0,49.0,29.90,WSW,243,0.0,0.0,35,0.00,,,0.00,Wunderground v.1.15,2013-11-02 09:32:00,
2013-11-02 20:37:00,78.3,49.9,29.90,WSW,243,0.0,0.0,37,0.00,,,0.00,Wunderground v.1.15,2013-11-02 09:37:00,
2013-11-02 20:43:00,77.3,50.4,29.91,WSW,243,0.0,0.0,39,0.00,,,0.00,Wunderground v.1.15,2013-11-02 09:43:00,
2013-11-02 20:48:00,76.6,50.5,29.91,WSW,244,0.0,0.0,40,0.00,,,0.00,Wunderground v.1.15,2013-11-02 09:48:00,
2013-11-02 20:53:00,76.2,50.1,29.91,WSW,243,0.0,0.0,40,0.00,,,0.00,Wunderground v.1.15,2013-11-02 09:53:00,
2013-11-02 20:58:00,76.0,50.6,29.91,WSW,243,0.0,0.0,41,0.00,,,0.00,Wunderground v.1.15,2013-11-02 09:58:00,
2013-11-02 21:04:00,75.6,50.2,29.91,WSW,243,0.0,0.0,41,0.00,,,0.00,Wunderground v.1.15,2013-11-02 10:04:00,
2013-11-02 21:09:00,75.3,50.6,29.91,WSW,243,0.0,0.0,42,0.00,,,0.00,Wunderground v.1.15,2013-11-02 10:09:00,
2013-11-02 21:15:00,75.2,51.2,29.92,WNW,292,0.0,0.0,43,0.00,,,0.00,Wunderground v.1.15,2013-11-02 10:15:00,
2013-11-02 21:20:00,75.2,51.2,29.92,North,-999,0.0,0.0,43,0.00,,,-99.99,WeatherLink 5.9.3,2013-11-02 10:20:00,
2013-11-02 21:26:00,74.9,52.1,29.92,SSE,160,0.0,0.0,45,0.00,,,0.00,Wunderground v.1.15,2013-11-02 10:26:00,
2013-11-02 21:31:00,74.2,52.1,29.92,SSE,160,0.0,0.0,46,0.00,,,0.00,Wunderground v.1.15,2013-11-02 10:31:00,
2013-11-02 21:36:00,73.5,52.0,29.92,SSE,160,0.0,0.0,47,0.00,,,0.00,Wunderground v.1.15,2013-11-02 10:36:00,
2013-11-02 21:41:00,72.9,52.1,29.92,SSE,160,0.0,0.0,48,0.00,,,0.00,Wunderground v.1.15,2013-11-02 10:41:00,
2013-11-02 21:47:00,72.3,52.6,29.92,SSE,160,0.0,0.0,50,0.00,,,0.00,Wunderground v.1.15,2013-11-02 10:47:00,
2013-11-02 21:52:00,71.8,52.7,29.92,SSE,160,0.0,0.0,51,0.00,,,0.00,Wunderground v.1.15,2013-11-02 10:52:00,
2013-11-02 21:57:00,71.4,53.4,29.92,SSE,160,0.0,0.0,53,0.00,,,0.00,Wunderground v.1.15,2013-11-02 10:57:00,
2013-11-02 22:02:00,71.2,53.7,29.92,SSE,160,0.0,0.0,54,0.00,,,0.00,Wunderground v.1.15,2013-11-02 11:02:00,
2013-11-02 22:08:00,71.2,54.7,29.92,SSE,160,0.0,0.0,56,0.00,,,0.00,Wunderground v.1.15,2013-11-02 11:08:00,
2013-11-02 22:13:00,71.0,54.0,29.92,SSE,160,0.0,0.0,55,0.00,,,0.00,Wunderground v.1.15,2013-11-02 11:13:00,
2013-11-02 22:19:00,70.8,54.3,29.92,SSE,160,0.0,0.0,56,0.00,,,0.00,Wunderground v.1.15,2013-11-02 11:19:00,
2013-11-02 22:24:00,70.8,54.3,29.92,SSE,160,0.0,0.0,56,0.00,,,0.00,Wunderground v.1.15,2013-11-02 11:24:00,
2013-11-02 22:29:00,70.7,54.7,29.92,SSE,160,0.0,0.0,57,0.00,,,0.00,Wunderground v.1.15,2013-11-02 11:29:00,
2013-11-02 22:35:00,70.5,54.5,29.92,SSE,160,0.0,0.0,57,0.00,,,0.00,Wunderground v.1.15,2013-11-02 11:35:00,
2013-11-02 22:40:00,70.7,54.7,29.92,SSE,157,0.0,1.0,57,0.00,,,-99.99,WeatherLink 5.9.3,2013-11-02 11:40:00,
2013-11-02 22:46:00,69.8,54.8,29.92,SSE,160,0.0,0.0,59,0.00,,,0.00,Wunderground v.1.15,2013-11-02 11:46:00,
2013-11-02 22:51:00,69.4,55.4,29.92,SSE,160,0.0,0.0,61,0.00,,,0.00,Wunderground v.1.15,2013-11-02 11:51:00,
2013-11-02 22:56:00,69.0,54.5,29.92,SSE,160,0.0,0.0,60,0.00,,,0.00,Wunderground v.1.15,2013-11-02 11:56:00,
2013-11-02 23:01:00,68.7,54.7,29.93,SSE,160,0.0,0.0,61,0.00,,,0.00,Wunderground v.1.15,2013-11-02 12:01:00,
2013-11-02 23:07:00,68.4,54.9,29.93,SSE,160,0.0,0.0,62,0.00,,,0.00,Wunderground v.1.15,2013-11-02 12:07:00,
2013-11-02 23:12:00,68.1,55.0,29.93,SSE,160,0.0,0.0,63,0.00,,,0.00,Wunderground v.1.15,2013-11-02 12:12:00,
2013-11-02 23:17:00,68.1,55.0,29.93,SSE,160,0.0,0.0,63,0.00,,,0.00,Wunderground v.1.15,2013-11-02 12:17:00,
2013-11-02 23:23:00,67.8,55.2,29.93,SSE,160,0.0,0.0,64,0.00,,,0.00,Wunderground v.1.15,2013-11-02 12:23:00,
2013-11-02 23:28:00,67.7,54.6,29.93,SSE,160,0.0,0.0,63,0.00,,,0.00,Wunderground v.1.15,2013-11-02 12:28:00,
2013-11-02 23:33:00,67.5,54.5,29.93,SSE,160,0.0,0.0,63,0.00,,,0.00,Wunderground v.1.15,2013-11-02 12:33:00,
2013-11-02 23:39:00,67.0,54.4,29.93,SSE,160,0.0,0.0,64,0.00,,,0.00,Wunderground v.1.15,2013-11-02 12:39:00,
2013-11-02 23:44:00,66.7,54.6,29.93,SSE,160,0.0,0.0,65,0.00,,,0.00,Wunderground v.1.15,2013-11-02 12:44:00,
2013-11-02 23:49:00,66.6,54.5,29.93,SSE,160,0.0,0.0,65,0.00,,,0.00,Wunderground v.1.15,2013-11-02 12:49:00,
2013-11-02 23:54:00,66.3,54.6,29.92,SSE,160,0.0,0.0,66,0.00,,,0.00,Wunderground v.1.15,2013-11-02 12:54:00,